Regional Weather Roundup
Issued by NWS Upton, NY

Current Version | Previous Version | Graphics & Text | Print | Product List | Glossary Off
Versions: 1 2 3 4 5 6 7 8 9 10 11 12 13 14 15 16 17 18 19 20 21 22 23 24 25 26 27 28 29 30 31 32 33 34 35 36 37 38 39 40 41 42 43 44 45 46 47 48 49 50
000 ASUS41 KOKX 240209 RWROKX REGIONAL WEATHER ROUNDUP NATIONAL WEATHER SERVICE NEW YORK NY 1000 PM EDT FRI JUN 23 2017 NOTE: "FAIR" INDICATES FEW OR NO CLOUDS BELOW 12,000 FEET WITH NO SIGNIFICANT WEATHER AND/OR OBSTRUCTIONS TO VISIBILITY. NYZ071-072-176-178-NJZ106-104-240300- NEW YORK CITY METRO AREA CITY SKY/WX TMP DP RH WIND PRES REMARKS Central Park CLOUDY 78 75 90 VRB6 29.67S Bronx Bot Gard N/A 75 72 88 S2 29.67R LaGuardia APRT CLOUDY 79 74 84 SW9 29.64R Kennedy INTL MOCLDY 75 71 87 S16 29.67R Breezy Point N/A 75 N/A N/A SW9 N/A Newark/Liberty CLOUDY 81 74 79 SW17 29.65R Teterboro CLOUDY 79 74 84 S6 29.63R $$ NYZ177-179-078>081-240300- LONG ISLAND NEW YORK CITY SKY/WX TMP DP RH WIND PRES REMARKS Jones Beach N/A 70 N/A N/A SW8G16 N/A Matinecock PT NOT AVBL Farmingdale NOT AVBL MacArthur/ISP MOCLDY 74 71 91 SW14 29.66R Shirley PTCLDY 73 71 93 S10 29.68R Mt Sinai Harb N/A N/A N/A N/A S10 N/A Westhampton CLOUDY 71 68 90 SW10 29.70R East Hampton CLOUDY 70 68 93 SW9G18 29.68S Montauk N/A 70 69 97 SW9 29.70R $$ NYZ052-065-067-240300- HUDSON VALLEY CITY SKY/WX TMP DP RH WIND PRES REMARKS White Plains NOT AVBL Larchmont Harb N/A 72 N/A N/A S14 N/A Croton O-T Hud N/A 79 N/A N/A SW9 N/A Newburgh MOCLDY 77 73 88 W8 29.65 Montgomery LGT RAIN 76 72 87 SW10 29.63R Poughkeepsie CLOUDY 77 72 84 VRB5 29.61R Albany LGT RAIN 78 70 76 S9 29.57S $$ NJZ001-105-106-008-010-013-015-019>022-104-240300- NEW JERSEY CITY SKY/WX TMP DP RH WIND PRES REMARKS Newark/Liberty CLOUDY 81 74 79 SW17 29.65R Teterboro CLOUDY 79 74 84 S6 29.63R Caldwell MOCLDY 78 74 87 CALM 29.65R Somerville CLOUDY 76 75 97 CALM 29.65R Linden FAIR 81 72 73 W8G17 29.64S Perth Amboy N/A 81 N/A N/A SW13 N/A Sussex LGT RAIN 74 73 97 CALM 29.65R Andover N/A 74 72 93 S5 29.67R Trenton MOCLDY 82 73 74 SW13G22 29.67R Millville CLEAR 82 75 79 VRB7 29.71R Atlantic City NOT AVBL Wrightstown PTCLDY 80 73 80 SW10 29.67R Toms River PTCLDY 77 72 84 S8 29.70R Belmar MOCLDY 80 73 79 S8G16 29.69R $$ PAZ047>061-062-071-240300- EASTERN PENNSYLVANIA CITY SKY/WX TMP DP RH WIND PRES REMARKS Philadelphia PTCLDY 83 72 69 SW21G28 29.68R Allentown CLOUDY 73 69 87 NW5 29.67R Scranton LGT RAIN 77 71 82 SW13G18 29.65R $$ CTZ002-004>006-009-010-012-RIZ004-006-007-MAZ004-011-015-240300- SOUTHERN NEW ENGLAND IN CT CITY SKY/WX TMP DP RH WIND PRES REMARKS Bradley INTL CLOUDY 77 71 82 S9 29.62S Hartford PTCLDY 76 71 85 S10 29.62R Danbury CLOUDY 75 72 90 S9 29.65S Wtrbury/Oxford CLOUDY 73 68 83 S10 29.66S Bridgeport MOCLDY 76 69 79 SW12 29.64S Meriden CLOUDY 74 70 87 S9 29.63F New Haven CLOUDY 73 70 88 SW6 29.65S Chester MOCLDY 73 72 94 VRB6 29.67S Groton MOCLDY 70 68 93 W8 29.66S Wilimantic CLOUDY 78 72 81 S8 29.65S IN RI CITY SKY/WX TMP DP RH WIND PRES REMARKS Providence MOCLDY 73 71 93 S10 29.67R Block Island NOT AVBL Westerly CLOUDY 71 68 90 SW7 29.69R IN MA CITY SKY/WX TMP DP RH WIND PRES REMARKS Boston PTCLDY 75 69 81 S12G22 29.61R Worcester MOCLDY 72 68 87 SW12 29.66R Westfield MOCLDY 77 72 83 MISG 29.61S Provincetown CLOUDY 67 65 93 SW17G24 29.67R Nantucket CLOUDY 64 64 100 S15 29.72S $$ ANZ330-335-338-340-345-350-353-355-240300- COASTAL MARINE OBSERVATIONS STATION/POSITION TIME SKY/WX TEMP WIND PRES VSBY WAVE AIR SEA DIR/SP/G HT/PER (UTC) (F) (DEG/KT/KT) (MB) (MI) (FT/S) NY HARB ENTRANCE 0050 69 65 200/ 19/ 23 1003.8 5/ 6 20 S FIRE ISLAND 0150 71 68 220/ 19/ 23 1004.5 6/ 6 GREAT SOUTH BAY 0130 73 76 210/ 19/ 25 N/A 23 SSW MONTAUK P 0150 68 64 1005.7 5/ 6 15 E BARNEGAT LI 0130 63 N/A 5/ 6 HUDSON CANYON 0050 71 67 210/ 17/ 21 1006.3 6/ 6 KINGS POINT 0130 71 65 210/ 11/ 14 1003.4 EXECUTION ROCKS 0145 73 180/ 14/ 16 N/A CENTRAL LI SOUND NOT AVBL EASTERN LI SOUND NOT AVBL ROBBINS REEF 0124 230/ 11/ 14 1004.2 $$ >>>>>>>>>>>>>>>>>>>>>>>>>>>> KEY <<<<<<<<<<<<<<<<<<<<<<<<<<< > < > SKY/WX - Sky Condition/Present Weather < > TMP - Temperature in Fahrenheit < > DP - Dew Point in Fahrenheit < > RH - Relative Humidity in Percent < > WIND - Direction (from) and Speed in MPH < > PRES - Mean Sea Level Pressure (inches of Hg) < > WCI - Wind Chill Index < > VSB - VISIBILITY IN MILES < > HX - HEAT INDEX < > TC - TEMPERATURE IN CELSIUS < > VRB - VARIABLE WIND DIRECTION < > < >>>>>>>>>>>>>>>>>>>>>>>>>>>> KEY <<<<<<<<<<<<<<<<<<<<<<<<<<<

USA.gov is the U.S. government's official web portal to all federal, state and local government web resources and services.